Flag for Germany Weather past 2 weeks in Aachen, North Rhine-Westphalia, Germany

Now
70 °F

Sunny.


Feels Like: 70 °F
Forecast: 61 / 80 °F
Wind: 3 mph from Southwest

Location: Maastricht Airport Zuid Limburg

Current Time: Aug 1, 2014 at 11:15:47 AM

Latest Report: Aug 1, 2014 at 10:00 AM


Visibility: 9 mi

Pressure: 29.87 "Hg

Humidity: 74%

Dew point: 61 °F

Location of AachenLocation

Historic Weather in Aachen — Graph

°F

Aachen temperature yesterday

Maximum temperature yesterday: 77 °F (at 6:00 PM)
Minimum temperature yesterday: 53 °F (at 6:00 AM)
Average temperature yesterday: 65 °F

Past Weeks' High & Low Weather Summary

 TemperatureHumidityPressure
High91 °F (Jul 18, 6:00 PM)100% (Jul 21, 10:00 PM)30.17 "Hg (Jul 21, 10:00 PM)
Low53 °F (Jul 31, 6:00 AM)32% (Jul 19, 3:00 PM)29.77 "Hg (Jul 20, 3:00 AM)
Average70 °F77%29.94 "Hg
* Reported Jul 17 10:00 AM — Aug 1 10:00 AM, Aachen, Weather by CustomWeather, © 2014

Note: Actual official high and low records may vary slightly from our data, if they occured in-between our weather recording intervals... More about our weather records

Advertising

Aachen weather history for previous 24 hours

 ConditionsComfort  
Time TempWeatherWind HumidityBarometerVisibility
10:00 AM
Aug 1
70 °FSunny.3 mph74%29.87 "Hg9 mi
9:00 AM65 °FSunny.2 mph80%29.87 "Hg11 mi
8:00 AM62 °FSunny.2 mph88%29.87 "Hg11 mi
7:00 AM59 °FSunny.3 mph93%29.87 "Hg13 mi
6:00 AM59 °FClear.3 mph93%29.88 "Hg12 mi
5:00 AM60 °FClear.5 mph92%29.89 "Hg14 mi
4:00 AM61 °FPassing clouds.3 mph86%29.89 "Hg14 mi
3:00 AM63 °FPassing clouds.3 mph80%29.89 "Hg17 mi
2:00 AM63 °FPassing clouds.2 mph83%29.90 "Hg14 mi
1:00 AM65 °FOvercast.2 mph79%29.91 "Hg14 mi
12:00 AM66 °FOvercast.2 mph77%29.91 "Hg11 mi
11:00 PM
Jul 31
66 °FPassing clouds.1 mph77%29.92 "Hg14 mi
10:00 PM69 °FClear.2 mph68%29.92 "Hg6 mi
9:00 PM71 °FSunny.N/A65%29.92 "Hg18 mi
8:00 PM75 °FSunny.2 mph53%29.92 "Hg19 mi
7:00 PM76 °FSunny.2 mph48%29.92 "Hg18 mi
6:00 PM77 °FSunny.1 mph48%29.93 "Hg14 mi
5:00 PM76 °FPassing clouds.2 mph52%29.95 "Hg15 mi
4:00 PM75 °FPassing clouds.2 mph51%29.96 "Hg18 mi
3:00 PM74 °FSunny.2 mph50%29.97 "Hg19 mi
2:00 PM73 °FPassing clouds.2 mph62%29.99 "Hg11 mi
1:00 PM71 °FPassing clouds.1 mph62%30.00 "Hg15 mi
12:00 PM68 °FSunny.2 mph64%30.01 "Hg13 mi
11:00 AM66 °FSunny.N/A66%30.02 "Hg12 mi
Weather by CustomWeather, © 2014

See weather overviewHow to use our weather pages